When you browse on this site, cookies collect data to enhance your experience and personalize the content and advertising you see.
Visit our Privacy Policy to learn more. By continuing to use the site, you agree to this use of cookies and data.
  • In Netherlands
  • List of Countries
  • For 7 days
  • Water Temperature
  • Weather Map
  • Weather Widgets
  • user-avatar
    Login

    Hourly Weather Gaborone

    Today, 6 June, Saturday

    Time Temperature Precipitation Wind Pressure Humidity
    00:00 +12°C° 0 mm 0 mps 681 mmHg 46%
    01:00 +12°C° 0 mm 0 mps 681 mmHg 47%
    02:00 +11°C° 0 mm 0 mps 681 mmHg 49%
    03:00 +11°C° 0 mm 0 mps 681 mmHg 51%
    04:00 +10°C° 0 mm 0 mps 681 mmHg 52%
    05:00 +10°C° 0 mm 0 mps 681 mmHg 54%
    06:00 +11°C° 0 mm 1 mps 682 mmHg 53%
    07:00 +12°C° 0 mm 1 mps 682 mmHg 52%
    08:00 +12°C° 0 mm 1 mps 683 mmHg 51%
    09:00 +15°C° 0 mm 1 mps 683 mmHg 45%
    10:00 +18°C° 0 mm 1 mps 684 mmHg 39%
    11:00 +20°C° 0 mm 2 mps 684 mmHg 33%
    12:00 +21°C° 0 mm 2 mps 684 mmHg 30%
    13:00 +23°C° 0 mm 2 mps 683 mmHg 27%
    14:00 +25°C° 0 mm 2 mps 683 mmHg 24%
    15:00 +24°C° 0 mm 2 mps 682 mmHg 24%
    16:00 +23°C° 0 mm 2 mps 682 mmHg 25%
    17:00 +23°C° 0 mm 2 mps 682 mmHg 26%
    18:00 +21°C° 0 mm 1 mps 682 mmHg 31%
    19:00 +19°C° 0 mm 1 mps 682 mmHg 36%
    20:00 +16°C° 0 mm 1 mps 682 mmHg 41%
    21:00 +15°C° 0 mm 1 mps 682 mmHg 43%
    22:00 +13°C° 0 mm 0 mps 682 mmHg 45%
    23:00 +13°C° 0 mm 0 mps 682 mmHg 46%

    Tomorrow, 7 June, Sunday

    Time Temperature Precipitation Wind Pressure Humidity
    00:00 +12°C° 0 mm 0 mps 682 mmHg 48%
    01:00 +13°C° 0 mm 1 mps 681 mmHg 50%
    02:00 +12°C° 0 mm 1 mps 681 mmHg 51%
    03:00 +12°C° 0 mm 1 mps 681 mmHg 54%
    04:00 +11°C° 0 mm 1 mps 681 mmHg 57%
    05:00 +10°C° 0 mm 1 mps 681 mmHg 60%
    06:00 +11°C° 0 mm 1 mps 681 mmHg 58%
    07:00 +10°C° 0 mm 0 mps 682 mmHg 57%
    08:00 +11°C° 0 mm 0 mps 683 mmHg 55%
    09:00 +15°C° 0 mm 1 mps 683 mmHg 48%
    10:00 +19°C° 0 mm 1 mps 684 mmHg 42%
    11:00 +21°C° 0 mm 1 mps 684 mmHg 35%
    12:00 +22°C° 0 mm 1 mps 683 mmHg 31%
    13:00 +24°C° 0 mm 1 mps 683 mmHg 27%
    14:00 +25°C° 0 mm 1 mps 682 mmHg 24%
    15:00 +24°C° 0 mm 1 mps 682 mmHg 25%
    16:00 +23°C° 0 mm 1 mps 681 mmHg 25%
    17:00 +22°C° 0 mm 1 mps 681 mmHg 26%
    18:00 +20°C° 0 mm 1 mps 681 mmHg 31%
    19:00 +19°C° 0 mm 1 mps 681 mmHg 35%
    20:00 +16°C° 0 mm 1 mps 681 mmHg 39%
    21:00 +15°C° 0 mm 1 mps 681 mmHg 41%
    22:00 +15°C° 0 mm 1 mps 681 mmHg 43%
    23:00 +14°C° 0 mm 1 mps 681 mmHg 45%

    Day after tomorrow, 8 June, Monday

    Time Temperature Precipitation Wind Pressure Humidity
    00:00 +14°C° 0 mm 1 mps 681 mmHg 46%
    01:00 +13°C° 0 mm 1 mps 680 mmHg 48%
    02:00 +12°C° 0 mm 0 mps 680 mmHg 49%
    03:00 +11°C° 0 mm 0 mps 680 mmHg 50%
    04:00 +12°C° 0 mm 1 mps 680 mmHg 52%
    05:00 +11°C° 0 mm 1 mps 680 mmHg 53%
    06:00 +12°C° 0 mm 1 mps 680 mmHg 52%
    07:00 +12°C° 0 mm 1 mps 681 mmHg 50%
    08:00 +13°C° 0 mm 1 mps 681 mmHg 49%
    09:00 +16°C° 0 mm 1 mps 681 mmHg 42%
    10:00 +19°C° 0 mm 1 mps 682 mmHg 36%
    11:00 +21°C° 0 mm 2 mps 682 mmHg 30%
    12:00 +23°C° 0 mm 2 mps 682 mmHg 27%
    13:00 +24°C° 0 mm 2 mps 681 mmHg 23%
    14:00 +25°C° 0 mm 2 mps 680 mmHg 20%
    15:00 +24°C° 0 mm 2 mps 680 mmHg 21%
    16:00 +23°C° 0 mm 2 mps 680 mmHg 22%
    17:00 +23°C° 0 mm 1 mps 680 mmHg 23%
    18:00 +21°C° 0 mm 1 mps 680 mmHg 26%
    19:00 +19°C° 0 mm 1 mps 680 mmHg 29%
    20:00 +16°C° 0 mm 1 mps 679 mmHg 33%
    21:00 +15°C° 0 mm 0 mps 680 mmHg 34%
    22:00 +14°C° 0 mm 0 mps 680 mmHg 36%
    23:00 +13°C° 0 mm 0 mps 680 mmHg 37%

    9 June, Tuesday

    Time Temperature Precipitation Wind Pressure Humidity
    00:00 +13°C° 0 mm 0 mps 680 mmHg 39%
    01:00 +13°C° 0 mm 0 mps 679 mmHg 40%
    02:00 +12°C° 0 mm 0 mps 679 mmHg 42%
    03:00 +11°C° 0 mm 0 mps 679 mmHg 43%
    04:00 +12°C° 0 mm 1 mps 679 mmHg 45%
    05:00 +11°C° 0 mm 1 mps 679 mmHg 47%
    06:00 +12°C° 0 mm 1 mps 679 mmHg 46%
    07:00 +12°C° 0 mm 1 mps 680 mmHg 45%
    08:00 +13°C° 0 mm 1 mps 680 mmHg 44%
    09:00 +15°C° 0 mm 1 mps 681 mmHg 38%
    10:00 +18°C° 0 mm 2 mps 681 mmHg 32%
    11:00 +21°C° 0 mm 3 mps 681 mmHg 26%
    12:00 +22°C° 0 mm 3 mps 681 mmHg 24%
    13:00 +24°C° 0 mm 3 mps 680 mmHg 21%
    14:00 +25°C° 0 mm 3 mps 680 mmHg 19%
    15:00 +25°C° 0 mm 3 mps 679 mmHg 20%
    16:00 +24°C° 0 mm 2 mps 679 mmHg 21%
    17:00 +23°C° 0 mm 2 mps 679 mmHg 22%
    18:00 +20°C° 0 mm 2 mps 679 mmHg 26%
    19:00 +18°C° 0 mm 2 mps 679 mmHg 30%
    20:00 +17°C° 0 mm 2 mps 679 mmHg 34%
    21:00 +16°C° 0 mm 2 mps 679 mmHg 36%
    22:00 +15°C° 0 mm 1 mps 679 mmHg 38%
    23:00 +14°C° 0 mm 1 mps 679 mmHg 40%

    10 June, Wednesday

    Time Temperature Precipitation Wind Pressure Humidity
    00:00 +14°C° 0 mm 1 mps 678 mmHg 43%
    01:00 +13°C° 0 mm 1 mps 678 mmHg 47%
    02:00 +12°C° 0 mm 1 mps 678 mmHg 50%
    03:00 +12°C° 0 mm 1 mps 678 mmHg 55%
    04:00 +11°C° 0 mm 1 mps 678 mmHg 59%
    05:00 +11°C° 0 mm 1 mps 678 mmHg 63%
    06:00 +11°C° 0 mm 1 mps 678 mmHg 64%
    07:00 +12°C° 0 mm 1 mps 678 mmHg 65%
    08:00 +12°C° 0 mm 1 mps 679 mmHg 66%
    09:00 +15°C° 0 mm 2 mps 679 mmHg 59%
    10:00 +18°C° 0 mm 3 mps 679 mmHg 52%
    11:00 +21°C° 0 mm 4 mps 680 mmHg 45%
    12:00 +22°C° 0 mm 4 mps 679 mmHg 38%
    13:00 +25°C° 0 mm 4 mps 679 mmHg 30%
    14:00 +27°C° 0 mm 4 mps 678 mmHg 23%
    15:00 +26°C° 0 mm 3 mps 678 mmHg 23%
    16:00 +26°C° 0 mm 3 mps 677 mmHg 23%
    17:00 +25°C° 0 mm 2 mps 677 mmHg 23%
    18:00 +23°C° 0 mm 2 mps 677 mmHg 26%
    19:00 +20°C° 0 mm 2 mps 676 mmHg 28%
    20:00 +18°C° 0 mm 2 mps 676 mmHg 31%
    21:00 +18°C° 0 mm 2 mps 676 mmHg 32%
    22:00 +17°C° 0 mm 2 mps 676 mmHg 33%
    23:00 +16°C° 0 mm 2 mps 676 mmHg 34%

    11 June, Thursday

    Time Temperature Precipitation Wind Pressure Humidity
    00:00 +16°C° 0 mm 2 mps 676 mmHg 36%
    01:00 +15°C° 0 mm 2 mps 676 mmHg 37%
    02:00 +14°C° 0 mm 3 mps 676 mmHg 38%
    03:00 +13°C° 0 mm 3 mps 676 mmHg 39%
    04:00 +12°C° 0 mm 3 mps 676 mmHg 40%
    05:00 +12°C° 0 mm 2 mps 676 mmHg 41%
    06:00 +11°C° 0 mm 3 mps 676 mmHg 41%
    07:00 +11°C° 0 mm 3 mps 677 mmHg 40%
    08:00 +11°C° 0 mm 3 mps 677 mmHg 40%
    09:00 +14°C° 0 mm 3 mps 678 mmHg 35%
    10:00 +17°C° 0 mm 3 mps 678 mmHg 31%
    11:00 +20°C° 0 mm 3 mps 679 mmHg 26%
    12:00 +21°C° 0 mm 3 mps 678 mmHg 24%
    13:00 +22°C° 0 mm 3 mps 678 mmHg 21%
    14:00 +23°C° 0 mm 4 mps 678 mmHg 19%
    15:00 +23°C° 0 mm 4 mps 677 mmHg 20%
    16:00 +22°C° 0 mm 4 mps 677 mmHg 20%
    17:00 +21°C° 0 mm 4 mps 677 mmHg 21%
    18:00 +18°C° 0 mm 4 mps 677 mmHg 23%
    19:00 +15°C° 0 mm 4 mps 677 mmHg 26%
    20:00 +13°C° 0 mm 4 mps 678 mmHg 28%
    21:00 +12°C° 0 mm 4 mps 678 mmHg 31%
    22:00 +11°C° 0 mm 4 mps 678 mmHg 34%
    23:00 +10°C° 0 mm 4 mps 678 mmHg 36%
    Show more